Volver al catálogo

STARLINK-30508

ActivoComunicacionesVLEO
NORAD 57979·PAYLOAD·🇺🇸 United States

Lanzado Sep 30, 2023 desde Cape Canaveral Space Force Station

Loading…

Próximos Pases (próximas 24 horas)

TLE

ActualizadoSource: CelesTrak SupGP

Época: Sep 14, 2026, 21:13 UTC

1 57979C 23151R   26257.88451389  .00013254  00000+0  48002-3 0  2575
2 57979  43.0034   2.3306 0001472 272.0735 203.7859 15.27573960    17

Sigue STARLINK-30508 en tiempo real con AllMySat

Download on the App Store